Location: Chequamegon National Forest
(46.1070°N, 90.8420°W)
Time: 17:26:30
(UTC-05:00)

ISS - All Passes

Search period start: 01 August 2014 00:00
Search period end: 11 August 2014 00:00
Orbit: 411 x 419 km, 51.6° (Epoch: 01 August)

Date Brightness Start Highest point End Pass type
(mag) Time Alt. Az. Time Alt. Az. Time Alt. Az.
01 Aug - 00:15:38 10° WSW 00:18:57 59° NNW 00:22:17 10° ENE visible
01 Aug - 01:53:03 10° WNW 01:56:05 30° N 01:59:07 10° ENE visible
01 Aug - 03:30:03 10° WNW 03:33:18 45° NNE 03:36:33 10° E visible
01 Aug - 05:06:50 10° WNW 05:10:01 41° SW 05:13:12 10° SE visible
01 Aug - 21:51:33 10° S 21:53:44 17° SE 21:55:57 10° E visible
01 Aug - 23:26:44 10° WSW 23:30:04 85° NNW 23:33:26 10° ENE night (unlit)
02 Aug - 01:04:01 10° WNW 01:07:06 32° N 01:10:11 10° ENE visible
02 Aug - 02:41:11 10° WNW 02:44:21 36° NNE 02:47:30 10° E visible
02 Aug - 04:17:54 10° WNW 04:21:15 66° SSW 04:24:34 10° SE visible
02 Aug - 05:56:30 10° WSW 05:57:24 11° SW 05:58:17 10° SSW daylight
02 Aug - 22:37:57 10° SW 22:41:14 62° SSE 22:44:33 10° ENE visible
03 Aug - 00:14:57 10° W 00:18:06 37° NNW 00:21:16 10° ENE visible
03 Aug - 01:52:17 10° WNW 01:55:21 32° N 01:58:26 10° ENE visible
03 Aug - 03:29:01 10° WNW 03:32:24 81° NNE 03:35:46 10° ESE visible
03 Aug - 05:06:25 10° W 05:08:46 18° SW 05:11:06 10° S visible
03 Aug - 21:49:20 10° SSW 21:52:27 38° SE 21:55:36 10° ENE visible
03 Aug - 23:25:54 10° W 23:29:09 46° NNW 23:32:24 10° ENE visible
04 Aug - 01:03:19 10° WNW 01:06:21 30° N 01:09:22 10° ENE visible
04 Aug - 02:40:10 10° WNW 02:43:30 57° NNE 02:46:49 10° ESE visible
04 Aug - 04:17:07 10° W 04:20:04 28° SW 04:23:00 10° SSE visible
04 Aug - 21:00:58 10° SSW 21:03:43 24° SE 21:06:28 10° E visible
04 Aug - 22:36:54 10° WSW 22:40:12 63° NNW 22:43:33 10° ENE visible
05 Aug - 00:14:18 10° WNW 00:17:19 30° N 00:20:21 10° ENE visible
05 Aug - 01:51:19 10° WNW 01:54:33 43° NNE 01:57:46 10° E visible
05 Aug - 03:28:04 10° WNW 03:31:18 45° SW 03:34:31 10° SE night (unlit)
05 Aug - 20:13:03 10° S 20:15:01 15° SE 20:17:00 10° E daylight
05 Aug - 21:47:58 10° WSW 21:51:18 88° SSE 21:54:40 10° ENE visible
05 Aug - 23:25:13 10° WNW 23:28:18 33° N 23:31:23 10° ENE visible
06 Aug - 01:02:25 10° WNW 01:05:33 35° NNE 01:08:41 10° E visible
06 Aug - 02:39:07 10° WNW 02:42:28 73° SSW 02:45:49 10° SE night (unlit)
06 Aug - 04:17:18 10° WSW 04:18:40 12° SW 04:20:02 10° SSW night (unlit)
06 Aug - 20:59:11 10° SW 21:02:27 56° SSE 21:05:44 10° ENE visible
06 Aug - 22:36:07 10° W 22:39:17 39° NNW 22:42:28 10° ENE visible
07 Aug - 00:13:28 10° WNW 00:16:31 31° N 00:19:35 10° ENE visible
07 Aug - 01:50:13 10° WNW 01:53:35 75° NNE 01:56:56 10° ESE visible
07 Aug - 03:27:29 10° W 03:29:59 20° SW 03:32:29 10° S night (unlit)
07 Aug - 20:10:35 10° SSW 20:13:39 35° SE 20:16:43 10° ENE daylight
07 Aug - 21:47:02 10° W 21:50:17 49° NNW 21:53:34 10° ENE visible
07 Aug - 23:24:28 10° WNW 23:27:29 30° N 23:30:30 10° ENE visible
08 Aug - 01:01:21 10° WNW 01:04:38 53° NNE 01:07:56 10° E visible
08 Aug - 02:38:14 10° WNW 02:41:15 31° SW 02:44:15 10° SSE night (unlit)
08 Aug - 19:22:16 10° S 19:24:53 22° SE 19:27:31 10° E daylight
08 Aug - 20:58:01 10° WSW 21:01:20 68° NNW 21:04:40 10° ENE visible
08 Aug - 22:35:24 10° WNW 22:38:25 31° N 22:41:27 10° ENE visible
09 Aug - 00:12:27 10° WNW 00:15:39 41° NNE 00:18:51 10° E visible
09 Aug - 01:49:10 10° WNW 01:52:26 50° SW 01:55:42 10° SE night (unlit)
09 Aug - 18:34:28 10° SSE 18:36:10 13° SE 18:37:53 10° ESE daylight
09 Aug - 20:09:05 10° WSW 20:12:25 81° SSE 20:15:45 10° ENE daylight
09 Aug - 21:46:17 10° WNW 21:49:22 34° N 21:52:28 10° ENE visible
09 Aug - 23:23:31 10° WNW 23:26:37 34° N 23:29:43 10° ENE visible
10 Aug - 01:00:13 10° WNW 01:03:34 80° SSW 01:06:55 10° ESE visible
10 Aug - 02:38:06 10° WSW 02:39:48 13° SW 02:41:30 10° SSW night (unlit)
10 Aug - 19:20:18 10° SW 19:23:32 51° SE 19:26:47 10° ENE daylight
10 Aug - 20:57:09 10° W 21:00:19 40° NNW 21:03:31 10° ENE visible
10 Aug - 22:34:31 10° WNW 22:37:33 31° N 22:40:35 10° ENE visible
